QPF
0.23 0.24 0.23 0.26 0.26 0.26 0.25 0.25 0.21 0.21 0.18 0.17 0.12 0.08 0.07 0.06 0.06 0.09 0.14 0.12 0.09 0.05 0.05 0.06 0.07 0.07 0.07 0.07 0.06 0.06 0.06 0.06 0.05 0.04 0.03 0.03 0.03 0.03 0.03 0.02 0.02 0.02 0.02
0.23 0.23 0.22 0.23 0.23 0.23 0.23 0.25 0.26 0.24 0.22 0.20 0.15 0.11 0.08 0.08 0.08 0.07 0.14 0.15 0.12 0.08 0.07 0.07 0.09 0.11 0.11 0.10 0.09 0.08 0.08 0.07 0.06 0.05 0.04 0.04 0.03 0.02 0.02 0.02 0.02 0.02 0.02
0.19 0.19 0.21 0.23 0.22 0.22 0.22 0.20 0.21 0.20 0.21 0.23 0.20 0.16 0.15 0.13 0.11 0.10 0.11 0.14 0.14 0.13 0.11 0.10 0.10 0.10 0.11 0.12 0.10 0.08 0.09 0.08 0.08 0.07 0.06 0.04 0.04 0.03 0.03 0.02 0.02 0.01 0.01
0.14 0.16 0.19 0.18 0.19 0.19 0.19 0.19 0.19 0.20 0.23 0.26 0.27 0.22 0.19 0.18 0.17 0.15 0.13 0.13 0.14 0.15 0.15 0.13 0.13 0.12 0.11 0.10 0.09 0.10 0.11 0.12 0.11 0.09 0.07 0.06 0.05 0.04 0.03 0.02 0.02 0.02 0.01
0.13 0.16 0.17 0.16 0.16 0.17 0.19 0.19 0.20 0.22 0.24 0.26 0.24 0.22 0.18 0.17 0.17 0.16 0.15 0.15 0.16 0.17 0.17 0.15 0.14 0.15 0.14 0.13 0.12 0.13 0.14 0.14 0.13 0.12 0.10 0.07 0.05 0.03 0.02 0.02 0.02 0.03 0.03
0.09 0.12 0.12 0.12 0.12 0.13 0.15 0.18 0.23 0.27 0.26 0.24 0.22 0.19 0.17 0.17 0.17 0.16 0.15 0.16 0.17 0.19 0.19 0.18 0.16 0.16 0.16 0.17 0.18 0.20 0.21 0.20 0.18 0.15 0.11 0.07 0.05 0.03 0.03 0.03 0.02 0.02 0.03
0.05 0.07 0.08 0.10 0.10 0.12 0.13 0.16 0.21 0.25 0.26 0.26 0.22 0.19 0.16 0.14 0.14 0.13 0.12 0.12 0.14 0.16 0.18 0.19 0.21 0.20 0.16 0.16 0.19 0.25 0.28 0.29 0.28 0.24 0.17 0.12 0.09 0.06 0.04 0.03 0.02 0.02 0.02
0.03 0.03 0.05 0.07 0.10 0.12 0.14 0.17 0.21 0.23 0.23 0.22 0.21 0.19 0.15 0.13 0.10 0.09 0.09 0.10 0.11 0.12 0.14 0.15 0.16 0.16 0.15 0.15 0.16 0.18 0.22 0.27 0.26 0.20 0.15 0.12 0.10 0.08 0.07 0.05 0.03 0.02 0.02
0.01 0.02 0.02 0.03 0.06 0.10 0.13 0.16 0.19 0.19 0.18 0.20 0.20 0.21 0.17 0.14 0.13 0.14 0.13 0.12 0.12 0.13 0.13 0.16 0.17 0.15 0.14 0.13 0.14 0.15 0.14 0.14 0.14 0.13 0.09 0.07 0.06 0.05 0.05 0.04 0.03 0.02 0.01
0.02 0.01 0.02 0.03 0.04 0.06 0.09 0.12 0.18 0.20 0.21 0.20 0.20 0.18 0.16 0.12 0.12 0.14 0.16 0.15 0.14 0.15 0.14 0.13 0.14 0.14 0.11 0.11 0.11 0.13 0.12 0.12 0.13 0.12 0.09 0.06 0.04 0.03 0.03 0.02 0.02 0.01 0.01
0.02 0.02 0.02 0.02 0.03 0.04 0.06 0.09 0.12 0.18 0.24 0.25 0.25 0.24 0.20 0.17 0.13 0.13 0.15 0.19 0.21 0.22 0.19 0.16 0.13 0.11 0.11 0.10 0.08 0.09 0.09 0.08 0.07 0.06 0.05 0.05 0.04 0.03 0.03 0.02 0.02 0.01 0.01
0.03 0.03 0.02 0.02 0.03 0.04 0.04 0.06 0.09 0.12 0.16 0.20 0.22 0.24 0.25 0.23 0.20 0.18 0.20 0.24 0.28 0.31 0.29 0.26 0.22 0.19 0.16 0.13 0.11 0.09 0.07 0.06 0.05 0.04 0.03 0.02 0.02 0.02 0.02 0.01 0.01 0.01 0.01
0.02 0.02 0.03 0.03 0.03 0.04 0.05 0.05 0.07 0.11 0.12 0.14 0.16 0.18 0.21 0.24 0.24 0.25 0.29 0.31 0.31 0.31 0.30 0.29 0.26 0.22 0.18 0.14 0.11 0.09 0.07 0.06 0.05 0.04 0.03 0.02 0.02 0.01 0.01 0.01 0.00 0.00 0.00
0.01 0.01 0.02 0.03 0.04 0.04 0.04 0.05 0.06 0.08 0.11 0.11 0.13 0.16 0.18 0.20 0.20 0.21 0.22 0.24 0.27 0.27 0.27 0.26 0.23 0.20 0.16 0.13 0.11 0.09 0.07 0.06 0.05 0.03 0.02 0.01 0.01 0.00 0.00 0.00 0.00 0.00 0.00
0.02 0.01 0.01 0.01 0.02 0.03 0.04 0.04 0.04 0.06 0.08 0.10 0.10 0.11 0.12 0.13 0.14 0.14 0.14 0.15 0.16 0.19 0.21 0.21 0.20 0.18 0.15 0.12 0.10 0.07 0.06 0.05 0.03 0.02 0.01 0.00 0.00 0.00 0.00 0.00 0.00 0.00 0.00
0.01 0.01 0.01 0.01 0.01 0.01 0.02 0.03 0.03 0.05 0.06 0.08 0.07 0.07 0.08 0.10 0.09 0.10 0.10 0.11 0.12 0.15 0.18 0.17 0.16 0.15 0.11 0.08 0.06 0.05 0.04 0.03 0.02 0.01 0.00 0.00 0.00 0.00 0.00 0.00 0.00 0.00 0.00
0.01 0.00 0.01 0.01 0.01 0.01 0.01 0.02 0.02 0.04 0.06 0.07 0.05 0.05 0.06 0.06 0.06 0.06 0.06 0.07 0.08 0.09 0.11 0.11 0.10 0.08 0.06 0.05 0.04 0.04 0.03 0.02 0.01 0.00 0.00 0.00 0.00 0.00 0.00 0.00 0.00 0.00 0.00
0.01 0.01 0.01 0.01 0.01 0.01 0.01 0.01 0.01 0.03 0.04 0.05 0.05 0.05 0.05 0.05 0.05 0.05 0.06 0.05 0.05 0.06 0.06 0.08 0.07 0.05 0.05 0.04 0.03 0.03 0.01 0.01 0.00 0.00 0.00 0.00 0.00 0.00 0.00 0.00 0.00 0.00 0.00
0.01 0.01 0.01 0.01 0.01 0.01 0.01 0.02 0.02 0.02 0.03 0.03 0.03 0.03 0.03 0.04 0.05 0.04 0.04 0.04 0.03 0.04 0.04 0.04 0.04 0.04 0.03 0.02 0.02 0.02 0.01 0.00 0.00 0.00 0.00 0.00 0.00 0.00 0.00 0.00 0.00 0.00 0.00
0.01 0.01 0.01 0.01 0.01 0.01 0.01 0.01 0.01 0.01 0.02 0.02 0.02 0.02 0.02 0.02 0.02 0.02 0.02 0.02 0.02 0.02 0.02 0.02 0.02 0.02 0.02 0.01 0.01 0.01 0.02 0.01 0.00 0.00 0.00 0.00 0.00 0.00 0.00 0.00 0.00 0.00 0.00
0.01 0.01 0.01 0.00 0.00 0.01 0.01 0.00 0.01 0.01 0.01 0.01 0.01 0.01 0.00 0.01 0.01 0.01 0.01 0.02 0.01 0.02 0.02 0.02 0.01 0.02 0.02 0.02 0.02 0.01 0.02 0.01 0.01 0.00 0.01 0.01 0.00 0.00 0.01 0.00 0.00 0.00 0.00
0.02 0.02 0.01 0.01 0.00 0.01 0.01 0.00 0.01 0.01 0.01 0.01 0.01 0.00 0.00 0.00 0.00 0.00 0.00 0.00 0.01 0.01 0.02 0.03 0.02 0.03 0.03 0.03 0.02 0.01 0.02 0.03 0.05 0.02 0.01 0.02 0.01 0.02 0.02 0.02 0.01 0.00 0.00
0.04 0.03 0.02 0.01 0.00 0.00 0.00 0.00 0.00 0.01 0.01 0.01 0.01 0.01 0.01 0.00 0.00 0.00 0.00 0.00 0.00 0.00 0.01 0.02 0.03 0.03 0.02 0.02 0.02 0.02 0.03 0.04 0.05 0.03 0.02 0.03 0.02 0.02 0.01 0.01 0.01 0.00 0.00
0.05 0.04 0.03 0.01 0.00 0.00 0.00 0.00 0.00 0.01 0.02 0.01 0.01 0.01 0.01 0.00 0.00 0.00 0.00 0.01 0.01 0.00 0.00 0.01 0.01 0.01 0.01 0.01 0.01 0.01 0.02 0.02 0.03 0.02 0.02 0.03 0.02 0.01 0.01 0.01 0.01 0.00 0.00
0.04 0.04 0.03 0.02 0.01 0.00 0.00 0.00 0.00 0.02 0.02 0.01 0.01 0.01 0.00 0.00 0.00 0.00 0.01 0.02 0.02 0.00 0.00 0.00 0.00 0.00 0.00 0.00 0.00 0.01 0.02 0.03 0.05 0.04 0.02 0.03 0.02 0.01 0.01 0.01 0.01 0.00 0.00
0.03 0.02 0.02 0.01 0.01 0.00 0.00 0.00 0.00 0.01 0.01 0.01 0.00 0.00 0.00 0.00 0.00 0.00 0.02 0.03 0.02 0.01 0.01 0.00 0.01 0.00 0.00 0.00 0.00 0.01 0.02 0.03 0.04 0.04 0.02 0.02 0.02 0.01 0.02 0.01 0.01 0.01 0.00
MSLP
1014.68 1014.87 1015.09 1015.36 1015.67 1015.99 1016.30 1016.54 1016.68 1016.70 1016.59 1016.38 1016.10 1015.83 1015.62 1015.52 1015.56 1015.78 1016.14 1016.62 1017.16 1017.73 1018.28 1018.77 1019.20 1019.56 1019.87 1020.14 1020.39 1020.63 1020.88 1021.13 1021.40 1021.68 1021.97 1022.25 1022.53 1022.79 1023.04 1023.26 1023.45 1023.61 1023.74
1014.60 1014.79 1015.02 1015.30 1015.62 1015.94 1016.23 1016.46 1016.59 1016.60 1016.50 1016.30 1016.05 1015.80 1015.60 1015.50 1015.52 1015.70 1016.00 1016.42 1016.91 1017.43 1017.96 1018.46 1018.90 1019.30 1019.64 1019.95 1020.23 1020.50 1020.77 1021.06 1021.36 1021.68 1022.01 1022.34 1022.67 1022.98 1023.27 1023.52 1023.74 1023.93 1024.08
1014.54 1014.72 1014.95 1015.22 1015.53 1015.84 1016.11 1016.32 1016.45 1016.46 1016.38 1016.22 1016.02 1015.82 1015.65 1015.56 1015.57 1015.70 1015.95 1016.29 1016.71 1017.18 1017.66 1018.15 1018.60 1019.02 1019.41 1019.76 1020.09 1020.42 1020.75 1021.08 1021.44 1021.82 1022.20 1022.59 1022.96 1023.31 1023.63 1023.90 1024.13 1024.32 1024.48
1014.51 1014.66 1014.87 1015.13 1015.41 1015.69 1015.94 1016.13 1016.24 1016.26 1016.21 1016.10 1015.96 1015.82 1015.71 1015.65 1015.66 1015.77 1015.96 1016.23 1016.58 1016.97 1017.41 1017.86 1018.31 1018.75 1019.18 1019.58 1019.98 1020.38 1020.78 1021.19 1021.62 1022.07 1022.52 1022.96 1023.38 1023.76 1024.09 1024.36 1024.58 1024.76 1024.90
1014.52 1014.63 1014.81 1015.04 1015.29 1015.53 1015.73 1015.89 1015.97 1016.00 1015.98 1015.92 1015.84 1015.77 1015.73 1015.72 1015.75 1015.85 1016.00 1016.22 1016.50 1016.83 1017.21 1017.62 1018.06 1018.52 1018.97 1019.43 1019.90 1020.37 1020.85 1021.35 1021.87 1022.39 1022.91 1023.41 1023.87 1024.27 1024.60 1024.86 1025.05 1025.19 1025.30
1014.57 1014.66 1014.81 1015.00 1015.21 1015.39 1015.54 1015.64 1015.70 1015.71 1015.70 1015.68 1015.67 1015.67 1015.69 1015.74 1015.82 1015.93 1016.07 1016.25 1016.48 1016.76 1017.10 1017.48 1017.90 1018.36 1018.84 1019.34 1019.86 1020.40 1020.96 1021.53 1022.13 1022.72 1023.31 1023.86 1024.35 1024.76 1025.09 1025.32 1025.48 1025.59 1025.66
1014.71 1014.78 1014.90 1015.06 1015.21 1015.34 1015.42 1015.45 1015.45 1015.43 1015.41 1015.41 1015.44 1015.51 1015.60 1015.72 1015.85 1015.99 1016.15 1016.33 1016.55 1016.81 1017.12 1017.48 1017.89 1018.35 1018.84 1019.36 1019.91 1020.49 1021.09 1021.72 1022.37 1023.02 1023.64 1024.23 1024.74 1025.16 1025.48 1025.70 1025.84 1025.91 1025.94
1014.93 1015.00 1015.11 1015.23 1015.33 1015.39 1015.40 1015.35 1015.28 1015.21 1015.16 1015.16 1015.21 1015.32 1015.47 1015.65 1015.84 1016.05 1016.26 1016.48 1016.72 1016.99 1017.31 1017.67 1018.09 1018.54 1019.03 1019.54 1020.09 1020.67 1021.28 1021.92 1022.58 1023.24 1023.89 1024.49 1025.01 1025.44 1025.76 1025.97 1026.09 1026.15 1026.17
1015.27 1015.33 1015.43 1015.53 1015.58 1015.57 1015.50 1015.37 1015.22 1015.07 1014.97 1014.94 1014.99 1015.11 1015.31 1015.55 1015.82 1016.10 1016.39 1016.68 1017.00 1017.34 1017.70 1018.10 1018.53 1018.98 1019.45 1019.95 1020.46 1020.99 1021.56 1022.15 1022.78 1023.42 1024.04 1024.63 1025.16 1025.59 1025.92 1026.14 1026.27 1026.33 1026.36
1015.68 1015.76 1015.85 1015.91 1015.92 1015.86 1015.71 1015.50 1015.26 1015.04 1014.87 1014.78 1014.80 1014.92 1015.14 1015.43 1015.77 1016.14 1016.54 1016.95 1017.38 1017.82 1018.28 1018.74 1019.21 1019.68 1020.13 1020.58 1021.02 1021.48 1021.95 1022.46 1023.00 1023.57 1024.15 1024.71 1025.22 1025.66 1026.00 1026.25 1026.40 1026.49 1026.55
1016.15 1016.22 1016.30 1016.34 1016.31 1016.19 1015.97 1015.69 1015.37 1015.07 1014.83 1014.68 1014.65 1014.75 1014.97 1015.29 1015.70 1016.17 1016.68 1017.23 1017.81 1018.39 1018.97 1019.54 1020.08 1020.57 1021.01 1021.40 1021.76 1022.11 1022.47 1022.85 1023.28 1023.76 1024.26 1024.77 1025.26 1025.69 1026.06 1026.33 1026.53 1026.67 1026.76
1016.62 1016.68 1016.73 1016.74 1016.67 1016.50 1016.24 1015.90 1015.52 1015.15 1014.84 1014.62 1014.54 1014.60 1014.81 1015.15 1015.60 1016.16 1016.80 1017.50 1018.23 1018.97 1019.70 1020.39 1021.01 1021.55 1021.98 1022.33 1022.61 1022.85 1023.08 1023.33 1023.63 1023.99 1024.41 1024.86 1025.32 1025.75 1026.13 1026.44 1026.69 1026.87 1027.00
1017.05 1017.07 1017.09 1017.06 1016.96 1016.76 1016.46 1016.08 1015.66 1015.24 1014.88 1014.61 1014.47 1014.49 1014.67 1015.01 1015.50 1016.13 1016.87 1017.70 1018.59 1019.49 1020.37 1021.18 1021.90 1022.48 1022.93 1023.25 1023.46 1023.60 1023.71 1023.84 1024.02 1024.28 1024.61 1025.00 1025.42 1025.85 1026.25 1026.59 1026.87 1027.08 1027.24
1017.43 1017.40 1017.37 1017.30 1017.16 1016.94 1016.62 1016.23 1015.79 1015.35 1014.95 1014.64 1014.46 1014.43 1014.58 1014.91 1015.41 1016.08 1016.90 1017.83 1018.83 1019.86 1020.87 1021.80 1022.60 1023.24 1023.71 1024.02 1024.18 1024.25 1024.28 1024.31 1024.40 1024.57 1024.84 1025.18 1025.57 1025.98 1026.38 1026.74 1027.04 1027.28 1027.45
1017.77 1017.68 1017.59 1017.47 1017.31 1017.07 1016.75 1016.37 1015.94 1015.50 1015.10 1014.77 1014.55 1014.49 1014.60 1014.89 1015.38 1016.06 1016.91 1017.89 1018.96 1020.07 1021.16 1022.17 1023.04 1023.72 1024.22 1024.53 1024.68 1024.71 1024.69 1024.67 1024.71 1024.83 1025.04 1025.35 1025.72 1026.12 1026.51 1026.87 1027.16 1027.40 1027.56
1018.11 1017.95 1017.80 1017.64 1017.45 1017.20 1016.90 1016.55 1016.15 1015.74 1015.35 1015.03 1014.80 1014.70 1014.77 1015.03 1015.48 1016.13 1016.96 1017.93 1019.01 1020.14 1021.25 1022.28 1023.18 1023.89 1024.41 1024.73 1024.88 1024.92 1024.89 1024.86 1024.88 1024.98 1025.18 1025.46 1025.81 1026.19 1026.56 1026.90 1027.18 1027.39 1027.54
1018.49 1018.27 1018.07 1017.87 1017.66 1017.42 1017.14 1016.82 1016.47 1016.10 1015.75 1015.45 1015.23 1015.13 1015.17 1015.38 1015.77 1016.35 1017.12 1018.03 1019.05 1020.12 1021.19 1022.19 1023.06 1023.77 1024.28 1024.62 1024.79 1024.85 1024.85 1024.85 1024.88 1024.99 1025.19 1025.47 1025.80 1026.15 1026.50 1026.81 1027.05 1027.23 1027.34
1018.96 1018.70 1018.45 1018.22 1018.00 1017.76 1017.50 1017.22 1016.92 1016.62 1016.32 1016.06 1015.87 1015.77 1015.79 1015.95 1016.28 1016.78 1017.44 1018.24 1019.15 1020.11 1021.07 1021.99 1022.79 1023.45 1023.94 1024.28 1024.48 1024.57 1024.62 1024.66 1024.73 1024.87 1025.08 1025.35 1025.66 1025.99 1026.30 1026.56 1026.77 1026.91 1026.99
1019.53 1019.24 1018.97 1018.72 1018.48 1018.25 1018.01 1017.76 1017.51 1017.27 1017.03 1016.83 1016.67 1016.59 1016.60 1016.73 1017.00 1017.40 1017.95 1018.61 1019.36 1020.17 1020.99 1021.77 1022.47 1023.05 1023.50 1023.83 1024.04 1024.17 1024.26 1024.35 1024.47 1024.63 1024.85 1025.12 1025.41 1025.70 1025.97 1026.20 1026.36 1026.47 1026.52
1020.18 1019.89 1019.61 1019.34 1019.09 1018.85 1018.62 1018.40 1018.19 1018.00 1017.82 1017.68 1017.57 1017.53 1017.55 1017.66 1017.87 1018.19 1018.62 1019.13 1019.73 1020.36 1021.01 1021.64 1022.21 1022.69 1023.08 1023.38 1023.59 1023.75 1023.88 1024.01 1024.16 1024.35 1024.57 1024.82 1025.09 1025.34 1025.57 1025.75 1025.88 1025.96 1026.00
1020.85 1020.58 1020.30 1020.02 1019.75 1019.51 1019.28 1019.07 1018.89 1018.74 1018.62 1018.54 1018.49 1018.49 1018.54 1018.65 1018.83 1019.08 1019.40 1019.78 1020.21 1020.68 1021.16 1021.63 1022.06 1022.45 1022.76 1023.02 1023.23 1023.40 1023.55 1023.70 1023.87 1024.07 1024.28 1024.51 1024.74 1024.95 1025.13 1025.27 1025.37 1025.44 1025.48
1021.48 1021.23 1020.97 1020.69 1020.41 1020.15 1019.92 1019.72 1019.55 1019.44 1019.36 1019.33 1019.34 1019.39 1019.48 1019.60 1019.76 1019.96 1020.20 1020.47 1020.77 1021.09 1021.42 1021.75 1022.06 1022.34 1022.59 1022.81 1023.00 1023.17 1023.33 1023.49 1023.67 1023.85 1024.04 1024.23 1024.42 1024.58 1024.72 1024.82 1024.90 1024.96 1025.00
1022.00 1021.79 1021.55 1021.28 1021.00 1020.73 1020.49 1020.29 1020.14 1020.04 1020.00 1020.02 1020.08 1020.18 1020.31 1020.45 1020.60 1020.77 1020.94 1021.13 1021.32 1021.53 1021.74 1021.95 1022.16 1022.37 1022.56 1022.75 1022.92 1023.08 1023.24 1023.40 1023.55 1023.71 1023.87 1024.02 1024.15 1024.27 1024.36 1024.43 1024.49 1024.54 1024.58
1022.37 1022.22 1022.01 1021.76 1021.50 1021.23 1020.99 1020.79 1020.64 1020.56 1020.55 1020.60 1020.70 1020.84 1020.99 1021.15 1021.30 1021.45 1021.58 1021.70 1021.81 1021.93 1022.06 1022.19 1022.33 1022.48 1022.64 1022.80 1022.95 1023.11 1023.26 1023.40 1023.54 1023.66 1023.78 1023.88 1023.96 1024.03 1024.08 1024.12 1024.15 1024.19 1024.22
1022.61 1022.52 1022.36 1022.15 1021.92 1021.67 1021.44 1021.25 1021.11 1021.05 1021.05 1021.12 1021.24 1021.39 1021.55 1021.72 1021.86 1021.98 1022.07 1022.14 1022.20 1022.26 1022.33 1022.41 1022.51 1022.63 1022.77 1022.91 1023.06 1023.21 1023.35 1023.47 1023.58 1023.67 1023.75 1023.80 1023.84 1023.86 1023.87 1023.87 1023.88 1023.88 1023.90
1022.74 1022.73 1022.64 1022.49 1022.31 1022.10 1021.90 1021.73 1021.61 1021.55 1021.56 1021.63 1021.75 1021.89 1022.04 1022.19 1022.30 1022.39 1022.44 1022.47 1022.49 1022.50 1022.53 1022.59 1022.67 1022.77 1022.90 1023.05 1023.20 1023.34 1023.47 1023.58 1023.66 1023.71 1023.75 1023.76 1023.75 1023.73 1023.70 1023.67 1023.64 1023.61 1023.59
Thickness
5728 5729 5730 5727 5726 5724 5724 5724 5724 5725 5726 5726 5728 5729 5730 5729 5730 5730 5728 5725 5724 5724 5722 5720 5718 5716 5714 5713 5711 5710 5708 5707 5705 5704 5702 5701 5700 5699 5698 5697 5695 5695 5694
5722 5723 5724 5723 5723 5722 5721 5721 5721 5721 5722 5722 5723 5724 5724 5723 5724 5724 5722 5719 5718 5717 5716 5715 5713 5712 5711 5709 5708 5706 5705 5703 5701 5700 5698 5697 5695 5694 5693 5692 5690 5689 5689
5718 5717 5718 5717 5716 5717 5717 5718 5718 5718 5718 5718 5718 5718 5718 5717 5717 5718 5716 5713 5712 5712 5710 5709 5708 5708 5707 5706 5704 5702 5701 5699 5697 5695 5693 5691 5690 5688 5687 5686 5685 5684 5683
5712 5711 5711 5711 5710 5711 5712 5712 5713 5713 5712 5711 5711 5711 5711 5711 5711 5711 5709 5707 5707 5706 5704 5704 5703 5703 5702 5701 5700 5698 5696 5693 5691 5689 5687 5685 5684 5682 5680 5679 5678 5677 5676
5705 5705 5705 5705 5705 5706 5706 5706 5707 5706 5705 5705 5705 5704 5704 5704 5704 5704 5703 5701 5701 5699 5698 5698 5698 5697 5696 5695 5694 5692 5690 5688 5685 5683 5681 5678 5676 5675 5673 5671 5670 5669 5668
5699 5699 5700 5700 5700 5700 5700 5700 5700 5700 5699 5699 5698 5696 5695 5695 5696 5696 5695 5695 5694 5693 5692 5692 5691 5690 5690 5688 5687 5686 5683 5681 5678 5676 5673 5671 5669 5666 5665 5663 5662 5661 5659
5692 5692 5692 5693 5693 5693 5694 5695 5695 5693 5693 5693 5689 5686 5686 5686 5686 5686 5687 5687 5687 5686 5685 5685 5683 5682 5681 5680 5679 5677 5675 5673 5670 5667 5664 5662 5659 5658 5655 5654 5652 5651 5650
5684 5686 5685 5686 5687 5687 5689 5689 5689 5687 5687 5687 5684 5679 5676 5674 5674 5675 5676 5677 5678 5678 5678 5676 5674 5673 5672 5671 5669 5668 5666 5664 5660 5657 5654 5651 5649 5648 5646 5644 5642 5641 5640
5675 5676 5677 5678 5679 5681 5682 5683 5683 5682 5680 5681 5681 5678 5673 5668 5664 5663 5664 5666 5667 5667 5667 5666 5664 5663 5662 5660 5658 5657 5656 5653 5650 5647 5644 5642 5640 5638 5636 5634 5632 5631 5629
5666 5666 5668 5669 5671 5673 5674 5675 5676 5677 5676 5674 5674 5674 5672 5670 5663 5655 5653 5654 5655 5654 5654 5655 5654 5652 5650 5649 5648 5646 5644 5642 5640 5637 5634 5632 5629 5627 5625 5623 5621 5620 5618
5656 5656 5658 5660 5662 5664 5666 5667 5668 5669 5670 5669 5668 5666 5665 5663 5662 5656 5647 5644 5643 5641 5641 5642 5642 5640 5638 5637 5635 5634 5632 5631 5629 5626 5624 5621 5619 5617 5615 5613 5611 5609 5607
5645 5646 5648 5651 5653 5655 5657 5659 5661 5662 5662 5662 5662 5661 5659 5658 5655 5652 5644 5637 5633 5629 5628 5628 5629 5628 5627 5625 5624 5623 5621 5619 5618 5615 5613 5611 5608 5606 5604 5602 5600 5598 5596
5635 5636 5639 5641 5643 5645 5648 5650 5651 5652 5653 5653 5653 5653 5653 5652 5650 5647 5640 5631 5625 5619 5616 5615 5616 5616 5614 5614 5613 5612 5610 5608 5606 5604 5602 5600 5598 5596 5593 5591 5589 5587 5585
5625 5626 5628 5630 5633 5635 5638 5639 5641 5642 5643 5644 5644 5644 5643 5642 5641 5639 5634 5627 5619 5612 5608 5605 5604 5604 5603 5603 5602 5601 5599 5598 5596 5594 5592 5590 5588 5586 5584 5581 5579 5576 5574
5616 5616 5618 5620 5622 5624 5627 5629 5630 5631 5633 5634 5634 5634 5634 5632 5631 5629 5626 5623 5618 5609 5602 5598 5596 5595 5594 5593 5592 5591 5589 5588 5587 5585 5583 5581 5579 5576 5574 5571 5569 5566 5564
5606 5607 5608 5610 5611 5613 5615 5618 5619 5621 5622 5623 5623 5623 5623 5622 5621 5619 5618 5616 5614 5609 5599 5594 5592 5590 5587 5585 5584 5582 5581 5579 5577 5576 5574 5572 5569 5567 5564 5561 5559 5556 5554
5596 5597 5598 5600 5601 5602 5604 5606 5607 5609 5610 5611 5612 5612 5612 5611 5610 5609 5609 5607 5605 5602 5595 5588 5585 5582 5580 5578 5576 5575 5573 5571 5569 5568 5566 5563 5561 5558 5556 5553 5550 5548 5545
5585 5586 5588 5589 5590 5591 5592 5594 5595 5596 5598 5599 5600 5601 5601 5601 5600 5600 5599 5598 5596 5593 5589 5581 5576 5574 5572 5571 5570 5569 5567 5565 5563 5561 5558 5556 5553 5550 5548 5545 5542 5540 5537
5574 5575 5577 5578 5579 5580 5581 5582 5583 5584 5585 5587 5588 5588 5589 5590 5590 5590 5589 5588 5586 5584 5580 5575 5569 5567 5565 5565 5563 5563 5562 5560 5558 5555 5551 5548 5546 5543 5541 5538 5535 5533 5530
5564 5565 5566 5566 5567 5568 5569 5571 5572 5573 5574 5574 5575 5576 5576 5577 5578 5579 5578 5577 5576 5573 5571 5567 5563 5561 5559 5558 5557 5555 5554 5554 5552 5549 5545 5543 5540 5537 5534 5532 5529 5526 5524
5554 5554 5555 5555 5556 5556 5555 5558 5561 5563 5563 5564 5564 5565 5565 5565 5566 5567 5566 5565 5565 5564 5562 5559 5556 5554 5552 5550 5549 5549 5547 5546 5545 5544 5540 5538 5535 5531 5528 5526 5523 5521 5518
5544 5544 5544 5543 5544 5543 5544 5547 5550 5552 5553 5554 5555 5555 5556 5556 5556 5556 5555 5555 5555 5554 5553 5551 5548 5546 5544 5543 5542 5542 5539 5537 5535 5536 5534 5532 5532 5528 5526 5523 5520 5518 5515
5534 5534 5534 5534 5533 5532 5535 5537 5540 5543 5544 5544 5544 5545 5547 5545 5545 5546 5546 5546 5545 5545 5545 5543 5540 5538 5536 5535 5534 5534 5532 5530 5528 5529 5529 5526 5527 5525 5524 5521 5519 5516 5513
5526 5526 5526 5526 5525 5524 5526 5528 5531 5534 5535 5535 5535 5535 5535 5534 5534 5536 5537 5537 5537 5536 5536 5535 5533 5531 5529 5528 5527 5527 5526 5526 5526 5526 5525 5521 5523 5522 5521 5519 5517 5514 5511
5520 5520 5519 5519 5519 5517 5518 5521 5524 5527 5527 5527 5526 5525 5526 5525 5525 5528 5530 5529 5528 5527 5527 5526 5525 5524 5523 5523 5522 5521 5520 5519 5518 5519 5520 5518 5518 5518 5517 5516 5514 5512 5510
5516 5516 5515 5514 5513 5512 5513 5516 5519 5522 5522 5521 5519 5518 5517 5517 5518 5520 5521 5522 5520 5520 5520 5520 5520 5520 5519 5519 5518 5516 5515 5514 5513 5512 5515 5514 5513 5512 5511 5513 5512 5510 5508